Back to catalog

SL-8 DEB

AliveLEO
NORAD 21184·DEBRIS·🇷🇺 Russia

Launched Feb 12, 1991 from Plesetsk Cosmodrome

Loading…

Next Passes (next 24 hours)

TLE

FreshSource: Space-Track

Epoch: Sep 14, 2026, 12:30 UTC

1 21184U 91009AX  26257.52120716 -.00000042  00000-0 -25756-3 0  9997
2 21184  74.0212  88.1088 0132937 214.5688 173.2730 12.19113440579871

Track SL-8 DEB in real time with AllMySat

Download on the App Store